Location: Arundel
(45.9667°N, 74.6189°W)
Time: 11:56:54
(UTC+00:00)

N. Korean satellite - Pass Details

Date: 01 December 2022
Orbit: 407 x 441 km, 97.3° (Epoch: 05 February)

Event Time Altitude Azimuth Distance (km) Brightness Sun altitude
Rises 22:04:03 0° 193° (SSW) 2,434 10.7 -8.4°
Reaches altitude 10° 22:06:17 10° 207° (SSW) 1,581 10.0 -8.8°
Maximum altitude 22:09:10 25° 265° (W) 957 9.0 -9.2°
Drops below altitude 10° 22:12:07 10° 323° (NW) 1,621 9.4 -9.7°
Sets 22:14:26 0° 337° (NNW) 2,512 10.2 -10.1°
